Location: Bailen
(14.1842°N, 120.7958°E)
Time: 18:03:52
(UTC+00:00)

Cosmos 2278 Rocket - Pass Details

Date: 12 January 2026
Orbit: 839 x 846 km, 71.0° (Epoch: 17 February)

Event Time Altitude Azimuth Distance (km) Brightness Sun altitude
Rises 20:45:37 0° 183° (S) 3,378 5.5 -23.4°
Reaches altitude 10° 20:48:09 10° 177° (S) 2,444 4.8 -22.8°
Maximum altitude 20:53:29 47° 104° (ESE) 1,100 3.2 -21.6°
Drops below altitude 10° 20:58:51 10° 32° (NNE) 2,448 4.8 -20.4°
Sets 21:01:22 0° 26° (NNE) 3,383 5.4 -19.8°
